TimeMST,TemperatureF,Dew PointF,Humidity,Sea Level PressureIn,VisibilityMPH,Wind Direction,Wind SpeedMPH,Gust SpeedMPH,PrecipitationIn,Events,Conditions,WindDirDegrees,DateUTC
12:15 AM,26.6,17.6,69,29.86,10.0,Calm,Calm,-,N/A,,Scattered Clouds,0,2014-02-04 07:15:00
12:35 AM,24.8,17.6,74,29.86,10.0,NE,3.5,-,N/A,,Partly Cloudy,40,2014-02-04 07:35:00
12:55 AM,24.8,17.6,74,29.87,10.0,Calm,Calm,-,N/A,,Clear,0,2014-02-04 07:55:00
1:15 AM,24.8,15.8,69,29.87,10.0,Calm,Calm,-,N/A,,Clear,0,2014-02-04 08:15:00
1:35 AM,24.8,19.4,80,29.87,10.0,Calm,Calm,-,N/A,,Mostly Cloudy,0,2014-02-04 08:35:00
1:55 AM,26.6,19.4,74,29.87,10.0,Calm,Calm,-,N/A,,Mostly Cloudy,0,2014-02-04 08:55:00
2:15 AM,26.6,17.6,69,29.87,10.0,Calm,Calm,-,N/A,,Mostly Cloudy,0,2014-02-04 09:15:00
2:35 AM,26.6,15.8,64,29.88,10.0,Calm,Calm,-,N/A,,Mostly Cloudy,0,2014-02-04 09:35:00
2:55 AM,24.8,15.8,69,29.88,10.0,WSW,3.5,-,N/A,,Scattered Clouds,250,2014-02-04 09:55:00
3:15 AM,24.8,15.8,69,29.88,10.0,NNW,3.5,-,N/A,,Mostly Cloudy,340,2014-02-04 10:15:00
3:35 AM,24.8,15.8,69,29.88,10.0,Calm,Calm,-,N/A,,Mostly Cloudy,0,2014-02-04 10:35:00
3:55 AM,24.8,15.8,69,29.88,10.0,Calm,Calm,-,N/A,,Partly Cloudy,0,2014-02-04 10:55:00
4:15 AM,24.8,15.8,69,29.88,10.0,Calm,Calm,-,N/A,,Scattered Clouds,0,2014-02-04 11:15:00
4:35 AM,23.0,15.8,74,29.89,10.0,WNW,3.5,-,N/A,,Mostly Cloudy,290,2014-02-04 11:35:00
4:55 AM,24.8,14.0,64,29.89,10.0,NW,5.8,-,N/A,,Partly Cloudy,320,2014-02-04 11:55:00
5:15 AM,24.8,15.8,69,29.89,10.0,Calm,Calm,-,N/A,,Mostly Cloudy,0,2014-02-04 12:15:00
5:35 AM,24.8,12.2,59,29.89,10.0,Calm,Calm,-,N/A,,Overcast,0,2014-02-04 12:35:00
5:55 AM,23.0,12.2,63,29.90,10.0,Calm,Calm,-,N/A,,Overcast,0,2014-02-04 12:55:00
6:15 AM,24.8,12.2,59,29.90,10.0,North,3.5,-,N/A,,Overcast,360,2014-02-04 13:15:00
6:35 AM,24.8,12.2,59,29.91,10.0,Calm,Calm,-,N/A,,Overcast,0,2014-02-04 13:35:00
6:55 AM,24.8,12.2,59,29.91,10.0,Calm,Calm,-,N/A,,Overcast,0,2014-02-04 13:55:00
7:15 AM,26.6,10.4,51,29.92,10.0,NW,6.9,-,N/A,,Overcast,320,2014-02-04 14:15:00
7:35 AM,24.8,12.2,59,29.92,10.0,WNW,5.8,-,N/A,,Overcast,300,2014-02-04 14:35:00
7:55 AM,24.8,12.2,59,29.93,10.0,NW,8.1,-,N/A,,Overcast,310,2014-02-04 14:55:00
8:15 AM,26.6,12.2,55,29.93,10.0,NW,6.9,-,N/A,,Scattered Clouds,320,2014-02-04 15:15:00
8:35 AM,26.6,12.2,55,29.94,10.0,WNW,5.8,-,N/A,,Partly Cloudy,300,2014-02-04 15:35:00
8:55 AM,26.6,12.2,55,29.94,10.0,WNW,5.8,-,N/A,,Clear,300,2014-02-04 15:55:00
9:15 AM,28.4,12.2,51,29.96,10.0,WNW,10.4,-,N/A,,Scattered Clouds,300,2014-02-04 16:15:00
9:35 AM,28.4,12.2,51,29.97,10.0,WNW,12.7,-,N/A,,Mostly Cloudy,300,2014-02-04 16:35:00
9:55 AM,28.4,15.8,59,29.97,10.0,WNW,11.5,-,N/A,,Mostly Cloudy,300,2014-02-04 16:55:00
10:15 AM,28.4,12.2,51,29.98,10.0,WNW,15.0,19.6,N/A,,Scattered Clouds,290,2014-02-04 17:15:00
10:35 AM,28.4,14.0,55,29.99,10.0,WNW,12.7,-,N/A,,Scattered Clouds,290,2014-02-04 17:35:00
10:55 AM,30.2,12.2,47,30.00,10.0,West,13.8,17.3,N/A,,Mostly Cloudy,270,2014-02-04 17:55:00
11:15 AM,30.2,14.0,51,30.00,10.0,WNW,13.8,-,N/A,,Scattered Clouds,290,2014-02-04 18:15:00
11:35 AM,32.0,12.2,44,30.00,10.0,WNW,15.0,-,N/A,,Clear,300,2014-02-04 18:35:00
11:55 AM,32.0,8.6,38,30.01,10.0,WNW,17.3,24.2,N/A,,Scattered Clouds,290,2014-02-04 18:55:00
12:15 PM,33.8,10.4,38,30.01,10.0,NNW,16.1,19.6,N/A,,Mostly Cloudy,330,2014-02-04 19:15:00
12:35 PM,30.2,10.4,44,30.01,10.0,North,17.3,23.0,N/A,,Overcast,360,2014-02-04 19:35:00
12:55 PM,30.2,10.4,44,30.00,10.0,NNW,13.8,21.9,N/A,,Mostly Cloudy,340,2014-02-04 19:55:00
1:15 PM,30.2,8.6,40,30.00,10.0,NNW,11.5,-,N/A,,Scattered Clouds,340,2014-02-04 20:15:00
1:35 PM,32.0,10.4,41,30.00,10.0,North,10.4,19.6,N/A,,Overcast,360,2014-02-04 20:35:00
1:55 PM,30.2,10.4,44,30.00,10.0,North,11.5,-,N/A,,Overcast,10,2014-02-04 20:55:00
2:15 PM,30.2,10.4,44,29.99,10.0,NE,10.4,-,N/A,,Mostly Cloudy,50,2014-02-04 21:15:00
2:35 PM,30.2,10.4,44,29.99,10.0,NNW,9.2,-,N/A,,Mostly Cloudy,340,2014-02-04 21:35:00
2:55 PM,30.2,6.8,37,29.99,10.0,NNW,4.6,-,N/A,,Mostly Cloudy,330,2014-02-04 21:55:00
3:15 PM,32.0,6.8,35,30.00,10.0,NW,9.2,18.4,N/A,,Mostly Cloudy,310,2014-02-04 22:15:00
3:35 PM,30.2,5.0,34,30.00,10.0,NNE,16.1,-,N/A,,Mostly Cloudy,20,2014-02-04 22:35:00
3:55 PM,30.2,10.4,44,30.00,10.0,North,12.7,-,N/A,,Mostly Cloudy,10,2014-02-04 22:55:00
4:15 PM,30.2,10.4,44,30.01,10.0,NNE,6.9,-,N/A,,Overcast,30,2014-02-04 23:15:00
4:35 PM,30.2,10.4,44,30.01,10.0,NNE,10.4,-,N/A,,Overcast,30,2014-02-04 23:35:00
4:55 PM,30.2,10.4,44,30.01,10.0,NE,9.2,-,N/A,,Overcast,40,2014-02-04 23:55:00
5:15 PM,28.4,10.4,47,30.01,10.0,NNE,12.7,-,N/A,,Overcast,20,2014-02-05 00:15:00
5:35 PM,28.4,12.2,51,30.03,10.0,NNE,12.7,-,N/A,,Overcast,30,2014-02-05 00:35:00
5:55 PM,28.4,15.8,59,30.03,8.0,East,10.4,-,N/A,,Overcast,80,2014-02-05 00:55:00
6:15 PM,26.6,15.8,64,30.04,5.0,ENE,9.2,-,N/A,,Overcast,70,2014-02-05 01:15:00
6:35 PM,26.6,17.6,69,30.05,10.0,ENE,5.8,-,N/A,,Overcast,60,2014-02-05 01:35:00
6:55 PM,24.8,17.6,74,30.06,10.0,NNE,5.8,-,N/A,,Overcast,30,2014-02-05 01:55:00
7:15 PM,24.8,17.6,74,30.06,8.0,NNE,4.6,-,N/A,,Overcast,30,2014-02-05 02:15:00
7:35 PM,24.8,15.8,69,30.06,10.0,NNE,4.6,-,N/A,,Overcast,20,2014-02-05 02:35:00
7:55 PM,24.8,17.6,74,30.07,10.0,NNE,3.5,-,N/A,,Scattered Clouds,20,2014-02-05 02:55:00
8:15 PM,24.8,15.8,69,30.07,10.0,NNE,3.5,-,N/A,,Mostly Cloudy,20,2014-02-05 03:15:00
8:35 PM,24.8,15.8,69,30.08,10.0,NNE,4.6,-,N/A,,Overcast,20,2014-02-05 03:35:00
8:55 PM,24.8,17.6,74,30.09,10.0,NNE,3.5,-,N/A,,Mostly Cloudy,30,2014-02-05 03:55:00
9:15 PM,24.8,17.6,74,30.09,8.0,NE,4.6,-,N/A,,Mostly Cloudy,40,2014-02-05 04:15:00
9:35 PM,24.8,17.6,74,30.09,5.0,NNE,6.9,-,N/A,,Mostly Cloudy,30,2014-02-05 04:35:00
9:55 PM,23.0,15.8,74,30.10,10.0,NNE,3.5,-,N/A,,Partly Cloudy,20,2014-02-05 04:55:00
10:15 PM,23.0,15.8,74,30.10,10.0,Calm,Calm,-,N/A,,Mostly Cloudy,0,2014-02-05 05:15:00
10:35 PM,23.0,15.8,74,30.10,10.0,Calm,Calm,-,N/A,,Mostly Cloudy,0,2014-02-05 05:35:00
10:55 PM,24.8,15.8,69,30.10,10.0,Calm,Calm,-,N/A,,Partly Cloudy,0,2014-02-05 05:55:00
11:15 PM,23.0,15.8,74,30.11,10.0,Calm,Calm,-,N/A,,Clear,0,2014-02-05 06:15:00
11:35 PM,21.2,15.8,80,30.11,10.0,Calm,Calm,-,N/A,,Partly Cloudy,0,2014-02-05 06:35:00
11:55 PM,21.2,15.8,80,30.11,10.0,Calm,Calm,-,N/A,,Mostly Cloudy,0,2014-02-05 06:55:00